Location: Noyers
(47.2770°N, 1.4032°E)
Time: 02:36:04
(UTC+00:00)

USA 290 - Pass Details

Date: 15 May 2026
Orbit: 396 x 415 km, 73.6° (Epoch: 30 October)

Event Time Altitude Azimuth Distance (km) Brightness Sun altitude
Exits shadow 21:18:07 39° 135° (SE) 607 2.5 -15.3°
Maximum altitude 21:18:35 42° 108° (ESE) 571 2.5 -15.4°
Drops below altitude 10° 21:21:35 10° 36° (NE) 1,434 5.2 -15.7°
Sets 21:23:39 0° 29° (NNE) 2,294 6.3 -15.9°
